Location: Bella Coola
(52.3721°N, 126.7539°W)
Time: 17:40:53
(UTC-07:00)

ISS - Pass Details

Date: 24 May 2019
Orbit: 408 x 418 km, 51.6° (Epoch: 18 June)

Event Time Altitude Azimuth Distance (km) Brightness Sun altitude
Rises 22:51:55 0° 267° (W) 2,355 0.5 -9.6°
Reaches altitude 10° 22:54:00 10° 267° (W) 1,494 -0.5 -9.8°
Maximum altitude 22:57:22 81° 180° (S) 428 -3.8 -10.1°
Drops below altitude 10° 23:00:44 10° 93° (E) 1,500 -1.3 -10.4°
Enters shadow 23:01:49 - 93° (E) 1,949 -0.7 -10.5°
